Weather History for KRDU - May, 2013

Change the Weather History Date:

Tuesday, May 28, 2013

  Actual Average Record
Temperature  
Mean Temperature 75 °F 71 °F  
Max Temperature 85 °F 83 °F 99 °F (1941)
Min Temperature 64 °F 60 °F 37 °F (1961)
Degree Days  
Heating Degree Days 0 1  
Month to date heating degree days 84 52  
Since 1 July heating degree days 3320 3241  
Cooling Degree Days 10 7  
Month to date cooling degree days 97 126  
Year to date cooling degree days 147 187  
Growing Degree Days 24 (Base 50)    
Moisture  
Dew Point 61 °F    
Average Humidity 69    
Maximum Humidity 87    
Minimum Humidity 51    
Precipitation  
Precipitation 0.00 in 0.12 in 1.37 in (1971)
Month to date precipitation 4.52 2.90  
Year to date precipitation 19.03 16.66  
Snow  
Snow 0.00 in - - ()
Month to date snowfall 0.0  
Snow Depth 0.00 in    
Sea Level Pressure  
Sea Level Pressure 30.20 in    
Wind  
Wind Speed 9 mph (SSW)    
Max Wind Speed 16 mph    
Max Gust Speed 22 mph    
Visibility 10 miles    
Events      
T = Trace of Precipitation, MM = Missing Value Source: NWS Daily Summary

Daily Weather History Graph

Daily Weather History Graph

Search for Another Location

Airport or City:

Trip Planner

Search our weather history database for the weather conditions in past years. The results will help you decide how hot, cold, wet, or windy it might be!

Date:

Astronomy

May. 28, 2013 Rise Set
Actual Time 6:01 AM EDT 8:23 PM EDT
Civil Twilight 5:32 AM EDT 8:53 PM EDT
Nautical Twilight 4:55 AM EDT 9:29 PM EDT
Astronomical Twilight 4:16 AM EDT 10:09 PM EDT
Moon 11:50 PM EDT (5/28) 9:44 AM EDT (5/28)
Length of Visible Light 15h 21m
Length of Day
14h 22m
Waning Gibbous, 83% of the Moon is Illuminated
May 28
Waning Gibbous
May 31
Last Quarter
Jun 8
New
Jun 16
First Quarter
Jun 23
Full

Hourly Weather History & Observations

Time (EDT) Temp. Heat Index Dew Point Humidity Pressure Visibility Wind Dir Wind Speed Gust Speed Precip Events Conditions
12:51 AM 66.0 °F - 55.0 °F 68% 30.21 in 10.0 mi South 6.9 mph - N/A   Scattered Clouds
1:51 AM 64.9 °F - 55.9 °F 73% 30.20 in 10.0 mi South 4.6 mph - N/A   Scattered Clouds
2:51 AM 64.0 °F - 57.0 °F 78% 30.20 in 10.0 mi South 6.9 mph - N/A   Scattered Clouds
3:51 AM 64.0 °F - 57.9 °F 80% 30.19 in 10.0 mi South 6.9 mph - N/A   Scattered Clouds
4:51 AM 64.0 °F - 59.0 °F 84% 30.19 in 10.0 mi South 8.1 mph - N/A   Scattered Clouds
5:51 AM 64.0 °F - 59.0 °F 84% 30.21 in 10.0 mi SSW 5.8 mph - N/A   Scattered Clouds
6:51 AM 64.9 °F - 60.1 °F 84% 30.23 in 10.0 mi SSW 5.8 mph - N/A   Mostly Cloudy
7:51 AM 68.0 °F - 62.1 °F 81% 30.25 in 10.0 mi SW 5.8 mph - N/A   Mostly Cloudy
8:51 AM 72.0 °F - 63.0 °F 73% 30.26 in 10.0 mi WSW 8.1 mph - N/A   Mostly Cloudy
9:51 AM 72.0 °F - 63.0 °F 73% 30.26 in 10.0 mi WSW 6.9 mph - N/A   Mostly Cloudy
10:51 AM 73.9 °F - 63.0 °F 68% 30.25 in 10.0 mi SW 9.2 mph - N/A   Scattered Clouds
11:51 AM 75.9 °F - 62.1 °F 62% 30.25 in 10.0 mi SW 9.2 mph - N/A   Mostly Cloudy
12:51 PM 81.0 °F 82.5 °F 64.0 °F 56% 30.23 in 10.0 mi SW 15.0 mph - N/A   Scattered Clouds
1:51 PM 81.0 °F 82.7 °F 64.9 °F 58% 30.20 in 10.0 mi SSW 12.7 mph 19.6 mph N/A   Scattered Clouds
2:51 PM 84.0 °F 85.8 °F 64.9 °F 53% 30.18 in 10.0 mi SSW 11.5 mph - N/A   Scattered Clouds
3:51 PM 84.0 °F 85.8 °F 64.9 °F 53% 30.18 in 10.0 mi SW 11.5 mph - N/A   Mostly Cloudy
4:51 PM 82.0 °F 83.1 °F 63.0 °F 52% 30.17 in 10.0 mi SSW 9.2 mph - N/A   Mostly Cloudy
5:51 PM 82.0 °F 83.0 °F 62.1 °F 51% 30.16 in 10.0 mi SSW 12.7 mph - N/A   Mostly Cloudy
6:51 PM 81.0 °F 81.9 °F 62.1 °F 52% 30.15 in 10.0 mi SW 12.7 mph - N/A   Mostly Cloudy
7:51 PM 79.0 °F - 61.0 °F 54% 30.15 in 10.0 mi SSW 9.2 mph 17.3 mph N/A   Scattered Clouds
8:51 PM 77.0 °F - 61.0 °F 58% 30.15 in 10.0 mi South 9.2 mph - N/A   Scattered Clouds
9:51 PM 75.0 °F - 62.1 °F 64% 30.16 in 10.0 mi SSW 10.4 mph - N/A   Partly Cloudy
10:51 PM 73.9 °F - 61.0 °F 64% 30.17 in 10.0 mi SSW 9.2 mph 18.4 mph N/A   Partly Cloudy
11:51 PM 71.1 °F - 60.1 °F 68% 30.19 in 10.0 mi SW 9.2 mph - N/A   Partly Cloudy